Change the Weather History Date:

Wednesday, December 11, 2013

  Actual Average Record
Temperature  
Mean Temperature 37 °F -  
Max Temperature 46 °F 52 °F 69 °F (2008)
Min Temperature 28 °F 36 °F 28 °F (2010)
Degree Days  
Heating Degree Days 28    
Moisture  
Dew Point 26 °F    
Average Humidity 68    
Maximum Humidity 89    
Minimum Humidity 39    
Precipitation  
Precipitation 0.00 in - - ()
Sea Level Pressure  
Sea Level Pressure 30.34 in    
Wind  
Wind Speed 6 mph (SW)    
Max Wind Speed 12 mph    
Max Gust Speed -    
Visibility 10 miles    
Events      
Averages and records for this station are not official NWS values.
T = Trace of Precipitation, MM = Missing Value Source: NWS Daily Summary

Daily Weather History Graph

Daily Weather History Graph

Search for Another Location

Airport or City:

Trip Planner

Search our weather history database for the weather conditions in past years. The results will help you decide how hot, cold, wet, or windy it might be!

Date:

Astronomy

Dec. 11, 2013 Rise Set
Actual Time 7:06 AM EST 4:48 PM EST
Civil Twilight 6:38 AM EST 5:16 PM EST
Nautical Twilight 6:05 AM EST 5:49 PM EST
Astronomical Twilight 5:34 AM EST 6:20 PM EST
Moon 1:14 PM EST (12/11) 1:32 AM EST (12/11)
Length of Visible Light 10h 38m
Length of Day
9h 41m
Waxing Gibbous, 71% of the Moon is Illuminated
Dec 11
Waxing Gibbous
Dec 17
Full
Dec 25
Last Quarter
Jan 1
New
Jan 7
First Quarter

Hourly Weather History & Observations

Time (EST) Temp. Windchill Dew Point Humidity Pressure Visibility Wind Dir Wind Speed Gust Speed Precip Events Conditions
12:56 AM 33.1 °F 27.7 °F 30.0 °F 89% 30.30 in 10.0 mi WSW 5.8 mph - N/A   Clear
1:56 AM 32.0 °F 26.4 °F 28.0 °F 85% 30.31 in 10.0 mi SW 5.8 mph - N/A   Clear
2:56 AM 30.0 °F 23.2 °F 27.0 °F 88% 30.32 in 10.0 mi SW 6.9 mph - N/A   Clear
3:56 AM 28.0 °F 20.8 °F 25.0 °F 88% 30.34 in 10.0 mi West 6.9 mph - N/A   Clear
4:56 AM 28.0 °F 21.7 °F 24.1 °F 85% 30.35 in 10.0 mi WSW 5.8 mph - N/A   Clear
5:56 AM 28.0 °F 22.8 °F 24.1 °F 85% 30.38 in 10.0 mi West 4.6 mph - N/A   Clear
6:56 AM 28.9 °F - 24.1 °F 82% 30.41 in 10.0 mi Calm Calm - N/A   Clear
7:56 AM 30.0 °F 25.2 °F 26.1 °F 85% 30.43 in 10.0 mi WSW 4.6 mph - N/A   Clear
8:56 AM 34.0 °F 31.0 °F 28.9 °F 82% 30.44 in 10.0 mi SW 3.5 mph - N/A   Clear
9:56 AM 39.0 °F - 28.0 °F 65% 30.45 in 10.0 mi Calm Calm - N/A   Partly Cloudy
10:56 AM 41.0 °F 39.0 °F 27.0 °F 57% 30.43 in 10.0 mi SSW 3.5 mph - N/A   Partly Cloudy
11:56 AM 44.1 °F 40.8 °F 24.1 °F 45% 30.40 in 10.0 mi WSW 5.8 mph - N/A   Partly Cloudy
12:56 PM 45.0 °F 43.5 °F 24.1 °F 44% 30.36 in 10.0 mi SSE 3.5 mph - N/A   Partly Cloudy
1:56 PM 46.0 °F 41.4 °F 21.9 °F 39% 30.33 in 10.0 mi SSW 9.2 mph - N/A   Scattered Clouds
2:56 PM 46.0 °F 40.6 °F 24.1 °F 42% 30.32 in 10.0 mi SW 11.5 mph - N/A   Scattered Clouds
3:56 PM 45.0 °F 40.6 °F 24.1 °F 44% 30.30 in 10.0 mi SSW 8.1 mph - N/A   Scattered Clouds
4:56 PM 42.1 °F 36.6 °F 26.1 °F 53% 30.30 in 10.0 mi SSW 9.2 mph - N/A   Scattered Clouds
5:56 PM 39.0 °F 34.0 °F 28.0 °F 65% 30.31 in 10.0 mi SW 6.9 mph - N/A   Scattered Clouds
6:56 PM 39.9 °F 35.1 °F 28.0 °F 63% 30.31 in 10.0 mi SW 6.9 mph - N/A   Mostly Cloudy
7:56 PM 39.9 °F 34.5 °F 28.0 °F 63% 30.30 in 10.0 mi SW 8.1 mph - N/A   Mostly Cloudy
8:56 PM 37.9 °F 31.5 °F 28.0 °F 68% 30.31 in 10.0 mi SW 9.2 mph - N/A   Mostly Cloudy
9:56 PM 37.0 °F 30.4 °F 28.0 °F 70% 30.30 in 10.0 mi SW 9.2 mph - N/A   Mostly Cloudy
10:56 PM 35.1 °F 28.6 °F 27.0 °F 72% 30.30 in 10.0 mi SW 8.1 mph - N/A   Scattered Clouds
11:56 PM 33.1 °F 26.9 °F 27.0 °F 78% 30.28 in 10.0 mi WSW 6.9 mph - N/A   Scattered Clouds